"Pseudo-MPEC" for P22ek0C

Created 2025 Sep 16 6:35:28 UT using Find_Orb

Click here for an explanation of pseudo-MPECs

 
 Astrometry: 
     P22ek0C* C2025 09 02.56436203 34 43.832-12 52 55.30   ~92GK 22.14wXNEOCPF52
     P22ek0C  C2025 09 02.57575503 34 43.859-12 52 51.79   ~92GK 22.42wXNEOCPF52
     P22ek0C  C2025 09 02.58715003 34 43.887-12 52 48.10   ~92GK 22.76wXNEOCPF52
     P22ek0C  C2025 09 02.59855903 34 43.938-12 52 44.45   ~92GK 22.15wXNEOCPF52
     P22ek0C KC2025 09 10.39606703 34 09.689-12 10 17.36   ~9AAo 21.73GVNEOCPV06
     P22ek0C KC2025 09 10.40411103 34 09.534-12 10 15.13   ~9AAo 22.76GVNEOCPV06
     P22ek0C KC2025 09 10.41215103 34 09.379-12 10 12.68   ~9AAo 22.39GVNEOCPV06

Station data:
(F52) Pan-STARRS 2, Haleakala  (N20.707382 W156.255910)  US/Hawaii.
   Observers J. Bulger, T. Dukes, T. Lowe, A. Schultz, M. Willman. Measurers
   K. Chambers, S. Chastel, T. de Boer, L. Denneau, J. Fairlamb, H.
   Flewelling, M. Huber, C.-C. Lin, E. Magnier, Y. Ramanjooloo, R. Wainscoat,
   R. Weryk. 1.8-m Ritchey-Chrétien + CCD.
(V06) Catalina Sky Survey-Kuiper  (N32.416871 W110.732550)  US/Arizona.
   Observers T. A. Pruyne, B. M. Africano, E. J. Christensen, G. A. Farneth,
   D. C. Fuls, A. R. Gibbs, A. D. Grauer, H. Gröller, J. A. Johnson, R. A.
   Kowalski, S. M. Larson, G. J. Leonard, D. Rankin, R. L. Seaman, F. C.
   Shelly, K. W. Wierzchoś. 1.55-m reflector + CCD.

Orbital elements:  P22ek0C
   Perihelion 2024 Sep 13.780451 +/- 152 TT = 18:43:50.9 (JD 2460567.280451)
Epoch 2025 Sep 10.0 TT = JDT 2460928.5   Earth MOID: 0.6289   Ma: 0.0637
M 162.399410159 +/- 110             (J2000 ecliptic)             AutoNEOCP
n   0.449586437 +/- 0.205           Peri.  165.363996 +/- 90
a   1.687565278 +/- 0.513           Node    41.699510 +/- 8
e   0.03107688 +/- 0.167            Incl.   36.299595 +/- 10
P   2.192/800.721d         H 19.62  G  0.15   U 11.7  SR
q 1.635121007 +/- 0.363    Q 1.740009550 +/- 2.02
From 7 observations 2025 Sept. 2-10; mean residual 0".19
Residuals in arcseconds: 
250902 F52  .21+  .13-    250902 F52  .02-  .19+    250910 V06  .08-  .38-    
250902 F52  .01-  .12-    250910 V06  .08+  .45+    
250902 F52  .19-  .06+    250910 V06  .00   .07-    

Ephemerides (geocentric):
Date (UTC) HH   RA             Dec           delta  r     elong  mag " sig PA
---- --------  ------------   ------------  ------ ------ -----  --- --------
2025 09 16 07  03 31 39.381   -11 33 57.90  0.9935 1.7384 120.8 22.1  353  90
2025 09 16 08  03 31 37.905   -11 33 41.45  0.9931 1.7384 120.9 22.1  357  90
2025 09 16 09  03 31 36.422   -11 33 24.98  0.9927 1.7384 120.9 22.1  361  90
2025 09 16 10  03 31 34.933   -11 33 08.50  0.9924 1.7384 121.0 22.1  364  90
2025 09 16 11  03 31 33.438   -11 32 52.00  0.9920 1.7384 121.0 22.1  368  90
2025 09 16 12  03 31 31.936   -11 32 35.48  0.9916 1.7384 121.0 22.1  372  90
2025 09 16 13  03 31 30.429   -11 32 18.94  0.9912 1.7384 121.1 22.1  376  90
2025 09 16 14  03 31 28.916   -11 32 02.39  0.9909 1.7384 121.1 22.1  380  90
2025 09 16 15  03 31 27.396   -11 31 45.81  0.9905 1.7384 121.2 22.1  383  90
2025 09 16 16  03 31 25.871   -11 31 29.22  0.9901 1.7384 121.2 22.1  387  90
2025 09 16 17  03 31 24.339   -11 31 12.61  .98974 1.7384 121.2 22.1  391  90
2025 09 16 18  03 31 22.802   -11 30 55.99  .98937 1.7384 121.3 22.1  395  89
2025 09 16 19  03 31 21.258   -11 30 39.34  .98899 1.7384 121.3 22.1  399  89
2025 09 16 20  03 31 19.708   -11 30 22.68  .98862 1.7384 121.4 22.1  403  89
2025 09 16 21  03 31 18.152   -11 30 06.00  .98824 1.7384 121.4 22.1  407  89
2025 09 16 22  03 31 16.590   -11 29 49.30  .98787 1.7384 121.4 22.1  411  89
2025 09 16 23  03 31 15.021   -11 29 32.58  .98749 1.7384 121.5 22.1  415  89
2025 09 17 00  03 31 13.447   -11 29 15.84  .98712 1.7384 121.5 22.1  419  89
2025 09 17 01  03 31 11.866   -11 28 59.09  .98675 1.7385 121.6 22.1  423  89
2025 09 17 02  03 31 10.280   -11 28 42.32  .98637 1.7385 121.6 22.1  427  89
2025 09 17 03  03 31 08.687   -11 28 25.52  .98600 1.7385 121.6 22.1  431  89
2025 09 17 04  03 31 07.088   -11 28 08.71  .98562 1.7385 121.7 22.1  435  89
2025 09 17 05  03 31 05.483   -11 27 51.88  .98525 1.7385 121.7 22.1  439  89
2025 09 17 06  03 31 03.871   -11 27 35.04  .98488 1.7385 121.8 22.1  443  89
2025 09 17 07  03 31 02.254   -11 27 18.17  .98450 1.7385 121.8 22.1  447  89
2025 09 17 08  03 31 00.630   -11 27 01.29  .98413 1.7385 121.8 22.1  451  89
2025 09 17 09  03 30 59.000   -11 26 44.38  .98376 1.7385 121.9 22.1  455  89
2025 09 17 10  03 30 57.365   -11 26 27.46  .98339 1.7385 121.9 22.1  460  89
2025 09 17 11  03 30 55.722   -11 26 10.52  .98301 1.7385 122.0 22.1  464  89
2025 09 17 12  03 30 54.074   -11 25 53.56  .98264 1.7385 122.0 22.1  468  89
2025 09 17 13  03 30 52.420   -11 25 36.58  .98227 1.7385 122.0 22.1  472  89
2025 09 17 14  03 30 50.759   -11 25 19.58  .98190 1.7385 122.1 22.1  477  89
2025 09 17 15  03 30 49.092   -11 25 02.56  .98153 1.7385 122.1 22.1  481  89
2025 09 17 16  03 30 47.419   -11 24 45.52  .98115 1.7385 122.2 22.1  485  89
2025 09 17 17  03 30 45.740   -11 24 28.47  .98078 1.7385 122.2 22.1  489  89
2025 09 17 18  03 30 44.054   -11 24 11.39  .98041 1.7385 122.2 22.1  494  89
2025 09 17 19  03 30 42.362   -11 23 54.30  .98004 1.7385 122.3 22.1  498  89
2025 09 17 20  03 30 40.665   -11 23 37.18  .97967 1.7385 122.3 22.1  503  89
2025 09 17 21  03 30 38.960   -11 23 20.05  .97930 1.7385 122.4 22.1  507  89
2025 09 17 22  03 30 37.250   -11 23 02.90  .97893 1.7385 122.4 22.1  511  89
2025 09 17 23  03 30 35.533   -11 22 45.72  .97855 1.7385 122.4 22.1  516  89
2025 09 18 00  03 30 33.811   -11 22 28.53  .97818 1.7385 122.5 22.1  520  89
2025 09 18 01  03 30 32.082   -11 22 11.32  .97781 1.7385 122.5 22.1  525  89
2025 09 18 02  03 30 30.346   -11 21 54.09  .97744 1.7385 122.6 22.1  529  89
2025 09 18 03  03 30 28.605   -11 21 36.83  .97707 1.7386 122.6 22.0  534  89
2025 09 18 04  03 30 26.857   -11 21 19.56  .97670 1.7386 122.6 22.0  538  89
2025 09 18 05  03 30 25.103   -11 21 02.27  .97633 1.7386 122.7 22.0  543  89
2025 09 18 06  03 30 23.343   -11 20 44.96  .97596 1.7386 122.7 22.0  547  89